AirNav   ProFlight Series 2 Aviation Headset
 
 1470 users online  

FA96 Oviedo Medical Center Heliport
Oviedo, Florida, USA

GOING TO OVIEDO?


FAA INFORMATION EFFECTIVE 16 JULY 2020

Location

FAA Identifier: FA96
Lat/Long: 28-39-28.9000N 081-13-42.4000W
28-39.481667N 081-13.706667W
28.6580278,-81.2284444
(estimated)
Elevation: 32 ft. / 10 m (estimated)
From city: 1 mile SW of OVIEDO, FL
Time zone: UTC -4 (UTC -5 during Standard Time)
Zip code: 32765

Heliport Operations

Heliport use: Private use. Permission required prior to landing
Activation date: 01/2017
Control tower: no
ARTCC: JACKSONVILLE CENTER
FSS: SAINT PETERSBURG FLIGHT SERVICE STATION
Attendance: 
Wind indicator: lighted
Segmented circle: no
Beacon: white-green-yellow (heliport)

Heliport Communications

WX ASOS at SFB (7 nm N): PHONE 407-321-9384
WX ASOS at ORL (9 nm SW): PHONE 407-658-6753
WX ASOS at MCO (14 nm S): PHONE 407-855-5235

Nearby radio navigation aids

VOR radial/distance  VOR name  Freq  Var
ORLr039/8.9ORLANDO VORTAC112.2000E
OMNr189/39.2ORMOND BEACH VORTAC112.6000E

Heliport Services

Runway Information

Helipad H1

Dimensions: 33 x 33 ft. / 10 x 10 m
Surface: concrete, in excellent condition
Runway edge lights: PERI
Traffic pattern: leftleft
Markings: basic, in good condition

Heliport Ownership and Management from official FAA records

Ownership: Privately-owned
Owner: OVIEDO MEDICAL CENTER
8300 RED BUG LAKE RD
OVIEDO, FL 32765
Phone (407) 890-2273
Manager: OVIEDO MEDICAL CENTER
8300 RED BUG LAKE RD
OVIEDO, FL 32765
Phone (407) 890-2077

Additional Remarks

FOR CD CTC ORLANDO APCH AT 407-852-7553.

Instrument Procedures

There are no published instrument procedures at FA96.

Some nearby airports with instrument procedures:

KSFB - Orlando Sanford International Airport (7 nm N)
KORL - Executive Airport (9 nm SW)
KMCO - Orlando International Airport (14 nm S)
X04 - Orlando Apopka Airport (19 nm W)
X21 - Arthur Dunn Air Park (21 nm E)
 
Loc | Ops | Rwys | IFR | FBO | Links
Com | Nav | Svcs | Stats | Notes
Aerial photo
No photo
 
Airport distance calculator
Flying to Oviedo Medical Center Heliport? Find the distance to fly.

From to FA96

Sunrise and sunset
Times for 07-Aug-2020
 Local
(UTC-4)
 Zulu
(UTC)
Morning civil twilight06:2610:26
Sunrise06:5110:51
Sunset20:1000:10
Evening civil twilight20:3500:35

Current date and time
Zulu (UTC)  07-Aug-2020 17:08:31
Local (UTC-4)  07-Aug-2020 13:08:31
 
METAR
KSFB 
7nm N 
071653Z 05005KT 10SM SCT040 33/23 A3010 RMK AO2 SLP191 T03330233
KORL 
9nm SW 
071653Z 15003KT 10SM FEW055 33/22 A3010 RMK AO2 SLP195 T03330217
KMCO 
16nm S 
071653Z 09004KT 10SM SCT037 SCT300 32/23 A3010 RMK AO2 SLP190 T03220233
TAF
KSFB 
7nm N 
071143Z 0712/0812 VRB03KT P6SM FEW025 SCT180 FM071400 33004KT P6SM SCT035 SCT250 FM071900 12007KT P6SM VCTS SCT045CB SCT060 TEMPO 0720/0722 3SM TSRA BKN035CB FM080100 17004KT P6SM SCT060 BKN250
KMCO 
16nm S 
071512Z 0715/0818 29004KT P6SM SCT035 SCT250 FM072000 10007KT P6SM VCTS SCT045CB SCT060 TEMPO 0720/0722 3SM TSRA BKN035CB FM080100 15004KT P6SM SCT060 BKN250 FM081500 VRB05KT P6SM SCT035 SCT250
NOTAMs
Click for the latest NOTAMs
NOTAMs are issued by the DoD/FAA and will open in a separate window not controlled by AirNav.

 

 
 

Would you like to see your business listed on this page?

 If your business provides an interesting product or service to pilots, flight crews, aircraft, or users of the Oviedo Medical Center Heliport, you should consider listing it here.  To start the listing process, click on the button below
 
Add a business
 

Other Pages about Oviedo Medical Center Heliport

Update a link
 
Copyright © AirNav, LLC. All rights reserved. Privacy Policy  Contact